This is the latest recevied weather packets stored in our database for station/object KK7ISX. If no packets are shown the sender has not sent any weather packets the latest 10 day(s).
| Time | Temp. | Humidity | Pressure | Rain* | Wind** | Luminosity | Snow |
|---|---|---|---|---|---|---|---|
| 1777677045 | 23.89° C | 24% | 1017.7 hPa | 0 mm | - | 404 W/m² | - |
| 1777676744 | 23.89° C | 25% | 1017.5 hPa | 0 mm | - | 417 W/m² | - |
| 1777676441 | 23.89° C | 24% | 1017.8 hPa | 0 mm | - | 421 W/m² | - |
| 1777676139 | 23.33° C | 28% | 1017.6 hPa | 0 mm | - | 436 W/m² | - |
| 1777675835 | 22.78° C | 27% | 1017.7 hPa | 0 mm | - | 477 W/m² | - |
| 1777675532 | 22.78° C | 26% | 1017.8 hPa | 0 mm | - | 422 W/m² | - |
| 1777675229 | 23.33° C | 26% | 1017.8 hPa | 0 mm | - | 455 W/m² | - |
| 1777674926 | 22.78° C | 25% | 1017.9 hPa | 0 mm | - | 477 W/m² | - |
| 1777674622 | 23.33° C | 25% | 1018.1 hPa | 0 mm | - | 491 W/m² | - |
| 1777674321 | 23.33° C | 24% | 1018.1 hPa | 0 mm | - | 532 W/m² | - |
| 1777674016 | 23.33° C | 26% | 1018.3 hPa | 0 mm | - | 531 W/m² | - |
| 1777673712 | 23.33° C | 24% | 1018.3 hPa | 0 mm | - | 558 W/m² | - |
| 1777673410 | 23.89° C | 25% | 1018.4 hPa | 0 mm | - | 551 W/m² | - |
| 1777673107 | 24.44° C | 25% | 1018.6 hPa | 0 mm | - | 577 W/m² | - |
| 1777672803 | 23.89° C | 26% | 1018.6 hPa | 0 mm | - | 585 W/m² | - |
| 1777672500 | 23.33° C | 25% | 1018.7 hPa | 0 mm | - | 606 W/m² | - |
| 1777672195 | 23.33° C | 26% | 1018.9 hPa | 0 mm | - | 573 W/m² | - |
| 1777671891 | 23.33° C | 27% | 1018.8 hPa | 0 mm | - | 613 W/m² | - |
| 1777671586 | 22.78° C | 26% | 1019 hPa | 0 mm | - | 600 W/m² | - |
| 1777671284 | 23.33° C | 25% | 1019 hPa | 0 mm | - | 622 W/m² | - |
| 1777670979 | 23.33° C | 27% | 1019.1 hPa | 0 mm | - | 637 W/m² | - |
| 1777670676 | 22.78° C | 27% | 1019.1 hPa | 0 mm | - | 641 W/m² | - |
| 1777670373 | 23.33° C | 26% | 1019 hPa | 0 mm | - | 646 W/m² | - |
| 1777670071 | 23.33° C | 26% | 1019.5 hPa | 0 mm | - | 655 W/m² | - |
| 1777669768 | 23.33° C | 28% | 1019.2 hPa | 0 mm | - | 676 W/m² | - |
* Rain latest hour (hover to see other rain measurements)
** Current wind speed in m/s (hover to see current wind gust speed)